THOR ABLESTAR DEB, 561

Orbit data source: Space-Track

THOR ABLESTAR DEB, 561 is space debris in LEO originally from a launch on Thu, 29 Jun 1961 UTC launched from the Air Force Eastern Test Range (AFETR). Debris objects in space refer to the collection of defunct objects orbiting the Earth. Examples of debris include non-operational satellites, rocket bodies, and fragments generated from explosions, collisions, or faulty payload assembly.

Loading next visibility...
Identifier
561, 1961-015GT
Orbit
LEO
Country
Flag of USUS
Related business
Manufacturer
Unknown
Mission
Spacecraft
Bus & Motor
Unknown
Mass
Unknown
Launch date (UTC)
1961-06-29 (64 years ago)
Launch vehicle
Unknown
Launch site
Air Force Eastern Test Range (AFETR)
Object type
Payload
Rocket body
Debris
Shape & HBR
Unknown
Radar Cross Section
Medium (>0.1 m² and <1 m²)

Expand to show TLE details & history
Last TLE update: 12 hours ago

TLE from 12 hours ago
0 THOR ABLESTAR DEB
1 00561U 61015GT  25261.03556390  .00000202  00000-0  91911-3 0  9990
2 00561  67.7509 107.9296 0624731 124.3400  35.8873 12.41262147907346
Epoch: 2025-09-18T00:51Z
TLE epoch observation values (Epoch: 2025-09-18T00:51:12.72Z)
Latitude
14.12112°
Longitude
-87.9529°
Altitude
1,115.09 km
Speed
7.473 km/s
True Right ascension
18h 48m 12s
True Declination
14° 02' 38"
Sunlit
Object was in daylight at epoch
Visualization orbit readout
Latitude
Unknown
Longitude
Unknown
Altitude
Unknown
Speed
Unknown
Apparent Right ascension
Unknown
Apparent Declination
Unknown
Sunlit
N/A
Visualization observer readout
Local Sidereal Time
05:58:20
Azimuth
Unknown
Elevation
Unknown
Doppler factor
Unknown
Orbital elements
Apogee altitude
1,991.811 km
Perigee altitude
1,007.51 km
Semi-major axis
7,877.797 km
Eccentricity
0.06247
Inclination
67.7509°
RAAN
107.9296°
Arg. of periapsis
124.34°
True anomaly
40.3618°
Mean anomaly
35.8873°
Eccentric anomaly
38.09574°
Mean motion
3.1041 °/min
Orbital period
115.98 mins
BSTAR
0.00091911
Loading maneuver chart data...
Computing Atmospheric mass density...

Documentation

Showing up to 5 results
|